DW7571 Weather Reports


Display with metric or nautical units.
time (UTC)temp
F
wind
direction
speed
MPH
gust
MPH
rain 1hr
in
rain 24hr
in
rain mn
in
humidity
%
barometer
mb
20260503174902 60 237 16.0 21.0 0.00 0.00 0.00 41 1011.9
20260503173401 61 249 12.0 14.0 0.00 0.00 0.00 43 1011.9
20260503171902 60 205 5.0 17.0 0.00 0.00 0.00 42 1012.2
20260503170901 60 245 6.0 16.0 0.00 0.00 0.00 42 1012.2
20260503130902 49 245 6.0 11.0 0.00 0.00 0.00 51 1013.9
20260503110402 41 232 4.0 7.0 0.00 0.00 0.00 61 1013.5
20260503080902 38 216 2.0 3.0 0.00 0.00 0.00 57 1014.6
20260503054402 37 225 2.0 2.0 0.00 0.00 0.00 61 1015.6
20260503053401 37 231 2.0 2.0 0.00 0.00 0.00 61 1015.6
20260503051902 37 221 2.0 2.0 0.00 0.00 0.00 60 1015.6
20260503050401 37 223 2.0 3.0 0.00 0.00 0.00 60 1015.6
20260503044902 38 238 2.0 2.0 0.00 0.00 0.00 59 1015.9
20260503043401 38 218 2.0 3.0 0.00 0.00 0.00 58 1015.9
20260503041902 38 238 2.0 2.0 0.00 0.00 0.00 57 1015.9
20260503040401 38 246 2.0 3.0 0.00 0.00 0.00 57 1015.9
20260503035402 38 226 4.0 4.0 0.00 0.00 0.00 59 1015.9
20260503033901 37 228 1.0 2.0 0.00 0.00 0.00 59 1015.9
20260503032401 38 249 2.0 2.0 0.00 0.00 0.00 59 1016.3
20260503030902 38 206 0.0 2.0 0.00 0.00 0.00 59 1016.3
20260503025401 39 209 0.0 2.0 0.00 0.00 0.00 58 1016.3
20260503022402 40 209 0.0 0.0 0.00 0.00 0.00 55 1016.3
20260503020901 41 208 0.0 0.0 0.00 0.00 0.00 52 1016.3
20260503015401 42 230 2.0 2.0 0.00 0.00 0.00 50 1016.3
20260503013902 43 241 2.0 3.0 0.00 0.00 0.00 48 1016.3
20260503012901 43 218 2.0 3.0 0.00 0.00 0.00 47 1015.9
20260503011402 44 225 2.0 4.0 0.00 0.00 0.00 46 1015.9
20260503003902 46 276 4.0 7.0 0.00 0.00 0.00 43 1015.9
20260503002402 47 233 2.0 6.0 0.00 0.00 0.00 44 1015.6
20260503001401 48 296 4.0 6.0 0.00 0.00 0.00 41 1015.6
20260502235902 49 322 4.0 6.0 0.00 0.00 0.00 40 1015.6
20260502234401 48 294 4.0 7.0 0.00 0.00 0.00 41 1015.6
20260502232901 48 220 3.0 7.0 0.00 0.00 0.00 43 1015.9
20260502225901 48 328 2.0 6.0 0.00 0.00 0.00 42 1015.9
20260502224401 49 227 3.0 8.0 0.00 0.00 0.00 41 1015.9
20260502221402 48 319 6.0 8.0 0.00 0.00 0.00 41 1015.9
20260502215902 48 329 5.0 7.0 0.00 0.00 0.00 43 1015.9
20260502214401 47 251 4.0 7.0 0.00 0.00 0.00 45 1015.9
20260502212901 47 35 3.0 8.0 0.00 0.00 0.00 45 1015.9
20260502211401 48 8 3.0 7.0 0.00 0.00 0.00 43 1016.3
20260502205901 49 311 5.0 11.0 0.00 0.00 0.00 43 1016.3
20260502204402 47 301 8.0 9.0 0.00 0.00 0.00 43 1016.3
20260502202902 49 302 5.0 9.0 0.00 0.00 0.00 41 1016.3
20260502201401 49 313 6.0 9.0 0.00 0.00 0.00 40 1016.6
20260502195902 48 318 4.0 7.0 0.00 0.00 0.00 42 1016.6
20260502194402 49 326 7.0 10.0 0.00 0.00 0.00 40 1016.9
20260502191902 47 296 10.0 11.0 0.00 0.00 0.00 41 1017.3
20260502190402 48 309 7.0 10.0 0.00 0.00 0.00 39 1017.3
20260502184901 51 0 6.0 10.0 0.00 0.00 0.00 38 1017.3
20260502180401 47 314 7.0 12.0 0.00 0.00 0.00 41 1017.6